Flag for Switzerland Weather past 2 weeks in Bülach, Zurich, Switzerland

Now
54 °F

Cool.


Feels Like: 54 °F
Forecast: 37 / 65 °F
Wind: 3 mph from West

Location: Zurich-Kloten

Current Time: May 26, 2015 at 2:29:42 AM

Latest Report: May 26, 2015 at 1:00 AM


Visibility: N/A

Pressure: 29.98 "Hg

Humidity: 93%

Dew point: 52 °F

Location of BülachLocation

Historic Weather in Bülach — Graph

°F

Bülach temperature yesterday

Maximum temperature yesterday: 68 °F (at 2:00 PM)
Minimum temperature yesterday: 53 °F (at 7:00 AM)
Average temperature yesterday: 58 °F

Past Weeks' High & Low Weather Summary

 TemperatureHumidityPressure
High81 °F (May 12, 3:00 PM)98% (May 18, 6:00 AM)30.34 "Hg (May 18, 6:00 AM)
Low43 °F (May 22, 6:00 AM)33% (May 11, 5:00 PM)29.72 "Hg (May 18, 6:00 PM)
Average57 °F72%30.07 "Hg
* Reported May 11 1:00 AM — May 26 1:00 AM, Bülach, Weather by CustomWeather, © 2015

Note: Actual official high and low records may vary slightly from our data, if they occured in-between our weather recording intervals... More about our weather records

Advertising

Bülach weather history for previous 24 hours

 ConditionsComfort  
Time TempWeatherWind HumidityBarometerVisibility
1:00 AM
Tue, May 26
54 °FCool.3 mph93%29.98 "HgN/A
12:00 AM54 °FCool.3 mph91%29.98 "HgN/A
10:00 PM
Mon, May 25
55 °FCool.2 mph91%29.97 "HgN/A
9:00 PM56 °FCool.1 mph82%29.96 "HgN/A
8:00 PM57 °FSprinkles. Overcast.6 mph81%29.94 "Hg6 mi
7:00 PM59 °FCool.6 mph83%29.92 "HgN/A
6:00 PM59 °FCool.5 mph80%29.93 "HgN/A
5:00 PM58 °FSprinkles. Overcast.3 mph81%29.94 "Hg11 mi
4:00 PM57 °FCool.6 mph86%29.96 "HgN/A
3:00 PM57 °FCool.8 mph78%29.96 "HgN/A
2:00 PM68 °FOvercast.5 mph49%29.90 "Hg22 mi
1:00 PM65 °FMild.2 mph50%29.93 "HgN/A
12:00 PM65 °FMild.5 mph58%29.96 "HgN/A
11:00 AM62 °FPartly sunny.3 mph63%29.98 "Hg16 mi
10:00 AM60 °FCool.5 mph70%30.00 "HgN/A
9:00 AM56 °FCool.1 mph78%30.02 "HgN/A
8:00 AM54 °FOvercast.1 mph87%30.02 "Hg16 mi
7:00 AM53 °FCool.1 mph88%30.03 "HgN/A
6:00 AM54 °FCool.1 mph81%30.03 "HgN/A
5:00 AM54 °FOvercast.2 mph83%30.03 "Hg12 mi
4:00 AM54 °FCool.3 mph82%30.03 "HgN/A
3:00 AM55 °FCool.5 mph79%30.03 "HgN/A
2:00 AM55 °FOvercast.3 mph82%30.03 "Hg12 mi
Weather by CustomWeather, © 2015

See weather overviewHow to use our weather pages